EW8921 Weather Reports


time (UTC)temp
C
wind
direction
speed
KPH
gust
KPH
rain 1hr
cm
rain 24hr
cm
rain mn
cm
humidity
%
barometer
mb
20260505004550 21 219 3.2 8.0 0.00 0.13 0.13 31 1007.1
20260505004517 21 264 1.6 6.4 0.00 0.13 0.00 31 999.2
20260505003048 22 130 3.2 6.4 0.00 0.13 0.13 31 1007.1
20260505003009 22 102 1.6 4.8 0.00 0.13 0.00 31 999.3
20260505001548 22 121 3.2 9.7 0.00 0.13 0.13 31 1007.1
20260505001509 22 96 3.2 8.0 0.00 0.13 0.00 31 999.3
20260505000050 21 161 0.0 6.4 0.00 0.13 0.13 33 1007.3
20260505000011 21 160 0.0 4.8 0.00 0.13 0.00 33 999.4
20260504234612 21 253 3.2 9.7 0.00 0.13 0.13 35 1007.4
20260504234503 21 305 1.6 9.7 0.00 0.13 0.00 35 999.6
20260504233051 21 132 3.2 17.7 0.00 0.13 0.13 34 1007.6
20260504233004 21 86 3.2 14.5 0.00 0.13 0.00 34 999.7
20260504231552 22 184 0.0 3.2 0.00 0.13 0.13 31 1007.6
20260504231503 22 184 0.0 3.2 0.00 0.13 0.00 31 999.7
20260504230049 21 153 1.6 4.8 0.00 0.13 0.13 32 1007.8
20260504230004 21 145 0.0 4.8 0.00 0.13 0.00 34 999.8
20260504224555 21 130 3.2 6.4 0.00 0.13 0.13 34 1007.6
20260504224501 21 134 1.6 4.8 0.00 0.13 0.00 34 999.6
20260504223102 21 106 1.6 6.4 0.00 0.13 0.00 35 999.6
20260504223054 21 144 1.6 8.0 0.00 0.13 0.13 35 1007.7
20260504223001 21 115 1.6 6.4 0.00 0.13 0.00 35 999.7
20260504221604 21 86 3.2 9.7 0.00 0.13 0.13 34 1007.8
20260504221558 21 105 1.6 8.0 0.00 0.13 0.00 34 999.8
20260504220101 21 108 3.2 8.0 0.00 0.13 0.00 34 999.9
20260504220054 21 159 4.8 11.3 0.00 0.13 0.13 33 1007.8
20260504214604 21 96 1.6 6.4 0.00 0.13 0.00 34 1000.1
20260504214553 21 138 3.2 6.4 0.00 0.13 0.13 34 1008.0
20260504213101 21 273 6.4 12.9 0.00 0.13 0.13 34 1008.4
20260504213056 21 276 3.2 11.3 0.00 0.13 0.00 35 1000.4
20260504211554 22 285 1.6 6.4 0.00 0.13 0.00 31 1000.6
20260504211550 22 281 1.6 11.3 0.00 0.13 0.13 31 1008.4
20260504210057 22 119 3.2 6.4 0.00 0.13 0.13 30 1008.4
20260504204625 23 231 1.6 11.3 0.00 0.13 0.13 30 1008.4
20260504204608 23 267 0.0 6.4 0.00 0.13 0.00 31 1000.6
20260504203111 23 145 1.6 6.4 0.00 0.13 0.00 30 1000.6
20260504203051 23 144 1.6 6.4 0.00 0.13 0.13 30 1008.6
20260504201548 22 253 3.2 14.5 0.00 0.13 0.13 34 1008.8
20260504201546 22 277 1.6 11.3 0.00 0.13 0.00 35 1000.8
20260504200057 21 276 6.4 16.1 0.00 0.13 0.13 35 1009.0
20260504200043 21 295 4.8 14.5 0.00 0.13 0.00 35 1001.0
20260504194928 22 288 3.2 14.5 0.00 0.13 0.13 34 1009.4
20260504193049 21 280 1.6 12.9 0.00 0.13 0.13 39 1009.6
20260504193040 21 284 0.0 11.3 0.00 0.13 0.13 39 1001.6
20260504191553 21 276 4.8 17.7 0.00 0.13 0.13 36 1009.8
20260504191539 21 280 4.8 14.5 0.00 0.13 0.13 37 1001.6
20260504190059 20 107 3.2 8.0 0.00 0.13 0.13 40 1009.9
20260504190035 20 86 1.6 8.0 0.00 0.13 0.13 40 1001.8
20260504184604 20 83 1.6 3.2 0.00 0.13 0.13 43 1010.2
20260504184531 20 79 1.6 3.2 0.00 0.13 0.13 43 1002.2
20260504183100 19 77 1.6 6.4 0.00 0.13 0.13 42 1010.4
20260504183029 19 72 0.0 6.4 0.00 0.13 0.13 42 1002.5
20260504181551 18 60 1.6 8.0 0.03 0.13 0.13 50 1010.9
20260504181523 18 56 1.6 8.0 0.03 0.13 0.13 51 1002.8
20260504180055 16 67 1.6 3.2 0.13 0.13 0.13 65 1011.0
20260504180020 16 63 1.6 3.2 0.13 0.13 0.13 65 1003.0
20260504174554 15 0 1.6 3.2 0.13 0.13 0.13 70 1011.4
20260504174518 15 63 1.6 3.2 0.13 0.13 0.13 70 1003.3
20260504173052 15 109 1.6 3.2 0.13 0.13 0.13 72 1011.3
20260504173015 15 105 0.0 3.2 0.13 0.13 0.13 71 1003.4
20260504171551 16 59 0.0 4.8 0.10 0.10 0.10 65 1011.8
20260504171514 16 54 0.0 4.8 0.08 0.08 0.08 65 1003.9
20260504081553 17 146 0.0 3.2 0.00 0.00 0.00 36 1011.2
20260504081519 17 145 0.0 1.6 0.00 0.00 0.00 36 1004.4
20260504060104 14 159 0.0 4.8 0.00 0.00 0.00 32 1003.9
20260504050107 14 0 0.0 1.6 0.00 0.00 0.00 34 1010.6
20260504044558 14 55 0.0 1.6 0.00 0.00 0.00 33 1004.0
20260504044549 14 61 0.0 1.6 0.00 0.00 0.00 33 1010.6
20260504043100 15 56 0.0 0.0 0.00 0.00 0.00 32 1004.1
20260504043053 15 0 0.0 0.0 0.00 0.00 0.00 31 1010.8
20260504041602 15 56 0.0 3.2 0.00 0.00 0.00 35 1004.1
20260504041553 15 0 1.6 4.8 0.00 0.00 0.00 34 1010.8
20260504040056 14 148 0.0 1.6 0.00 0.00 0.00 36 1004.1
20260504034611 15 149 0.0 1.6 0.00 0.00 0.00 36 1004.0
20260504033055 15 149 0.0 1.6 0.00 0.00 0.00 34 1003.9
20260504033052 15 150 0.0 1.6 0.00 0.00 0.00 33 1010.6
20260504031555 16 151 0.0 0.0 0.00 0.00 0.00 32 1010.7
20260504030053 16 149 0.0 1.6 0.00 0.00 0.00 30 1003.7
20260504024555 17 150 0.0 0.0 0.00 0.00 0.00 26 1003.4
20260504024553 17 0 0.0 0.0 0.00 0.00 0.00 26 1010.2
20260504023053 20 149 0.0 0.0 0.00 0.00 0.00 23 1003.3
20260504023051 20 0 0.0 0.0 0.00 0.00 0.00 22 1010.2
20260504021554 22 149 0.0 0.0 0.00 0.00 0.00 19 1003.2
20260504021548 22 0 0.0 0.0 0.00 0.00 0.00 18 1010.0
20260504020107 25 150 0.0 0.0 0.00 0.00 0.00 14 1003.2
20260504020056 25 0 0.0 0.0 0.00 0.00 0.00 14 1010.0
20260504014616 26 152 0.0 1.6 0.00 0.00 0.00 11 1010.0
20260504014558 26 150 0.0 1.6 0.00 0.00 0.00 12 1003.2
20260504013108 26 145 0.0 1.6 0.00 0.00 0.00 12 1003.3
20260504013054 26 146 0.0 1.6 0.00 0.00 0.00 11 1010.1
20260504011557 25 136 0.0 3.2 0.00 0.00 0.00 12 1010.1
20260504011548 25 134 0.0 3.2 0.00 0.00 0.00 12 1003.3
20260504010058 25 130 0.0 4.8 0.00 0.00 0.00 12 1010.4
20260504010047 25 129 1.6 4.8 0.00 0.00 0.00 12 1003.4